Regional Weather Roundup
Issued by NWS

Home | Current Version | Previous Version | Graphics & Text | Print | Product List | Glossary On
Versions: 1 2 3 4 5 6 7 8 9 10 11 12 13 14 15 16 17 18 19 20 21 22 23 24 25 26 27 28 29 30 31 32 33 34 35 36 37 38 39 40 41 42 43 44 45 46 47 48 49 50
000
ASUS43 KBIS 031202
RWRND

NORTH DAKOTA REGIONAL WEATHER ROUNDUP
NATIONAL WEATHER SERVICE BISMARCK ND
600 AM CST SAT DEC 03 2016

NOTE: "FAIR" INDICATES FEW OR NO CLOUDS BELOW 12,000 FEET WITH NO
SIGNIFICANT WEATHER AND/OR OBSTRUCTIONS TO VISIBILITY.


NDZ001>003-009>011-017-031300-
NORTHWEST NORTH DAKOTA

CITY           SKY/WX    TMP DP  RH WIND       PRES   REMARKS
WILLISTON      CLEAR     22  18  85 S3        29.87F
6HR MIN TEMP:  19; 6HR MAX TEMP:  24;

MINOT          CLEAR     25  22  88 S8        29.94F WCI  16
MINOT AFB      CLEAR     22  19  91 S12       29.93F WCI  10
$$

NDZ018>021-031>035-040>046-031300-
SOUTHWEST NORTH DAKOTA

CITY           SKY/WX    TMP DP  RH WIND       PRES   REMARKS
BISMARCK       MOCLDY    23  22  96 SE13      30.05F WCI  11
6HR MIN TEMP:  15; 6HR MAX TEMP:  27;

DICKINSON      CLEAR     17  14  88 S13       29.89F WCI   4
GARRISON         N/A     25  24  96 S5        29.97F WCI  19
6HR MIN TEMP:  23; 6HR MAX TEMP:  27;

HETTINGER ARPT CLEAR     21  18  88 SE6       29.95F WCI  13
$$

NDZ004>008-012>016-024-026-027-054-031300-
NORTHEAST NORTH DAKOTA

CITY           SKY/WX    TMP DP  RH WIND       PRES   REMARKS
GRAND FORKS    CLOUDY    27  20  75 S17       30.19F WCI  14
GRND FRKS AFB  CLOUDY    26  20  77 S14       30.18F WCI  14
DEVILS LAKE    CLOUDY    26  24  92 S15       30.09F WCI  14
$$

NDZ022-023-025-028>030-036>039-047>053-031300-
SOUTHEAST NORTH DAKOTA

CITY           SKY/WX    TMP DP  RH WIND       PRES   REMARKS
FARGO          PTCLDY    25  18  74 S9        30.23F WCI  15
6HR MIN TEMP:  25; 6HR MAX TEMP:  27;

JAMESTOWN      CLOUDY    26  23  88 S14       30.12F WCI  14
$$




USA.gov is the U.S. government's official web portal to all federal, state and local government web resources and services.